• în România
  • Lista ţărilor
  • Pe 7 zile
  • Temperatura apei
  • Hartă satelitară
  • Meteo pe hartă
  • Widget-uri
  • user-avatar
    Intrare

    Meteo pe oră la Eisenstadt

    Astăzi, 27 Iunie, Marţi

    Timp Temperatura Precipitaţii Vânt Presiune Umiditate
    00:00 +18°C° 0 mm 2 m/s 720 mmHg 86%
    01:00 +17°C° 0 mm 2 m/s 720 mmHg 87%
    02:00 +17°C° 0 mm 2 m/s 719 mmHg 87%
    03:00 +17°C° 0 mm 2 m/s 719 mmHg 87%
    04:00 +16°C° 0 mm 2 m/s 719 mmHg 88%
    05:00 +18°C° 0 mm 2 m/s 719 mmHg 82%
    06:00 +20°C° 0 mm 3 m/s 719 mmHg 77%
    07:00 +22°C° 0 mm 3 m/s 720 mmHg 71%
    08:00 +25°C° 0 mm 3 m/s 720 mmHg 65%
    09:00 +26°C° 0 mm 4 m/s 720 mmHg 59%
    10:00 +27°C° 0 mm 4 m/s 720 mmHg 53%
    11:00 +28°C° 0 mm 5 m/s 719 mmHg 51%
    12:00 +29°C° 0 mm 5 m/s 719 mmHg 49%
    13:00 +30°C° 0 mm 5 m/s 719 mmHg 46%
    14:00 +30°C° 0,2 mm 5 m/s 719 mmHg 48%
    15:00 +30°C° 0,2 mm 5 m/s 718 mmHg 50%
    16:00 +29°C° 0,2 mm 5 m/s 718 mmHg 53%
    17:00 +28°C° 0 mm 4 m/s 718 mmHg 59%
    18:00 +27°C° 0 mm 3 m/s 717 mmHg 65%
    19:00 +25°C° 0 mm 3 m/s 717 mmHg 71%
    20:00 +24°C° 0 mm 2 m/s 717 mmHg 74%
    21:00 +21°C° 0 mm 2 m/s 717 mmHg 77%
    22:00 +20°C° 0 mm 2 m/s 717 mmHg 80%
    23:00 +19°C° 0 mm 3 m/s 717 mmHg 80%

    Mâine, 28 Iunie, Miercuri

    Timp Temperatura Precipitaţii Vânt Presiune Umiditate
    00:00 +19°C° 0 mm 3 m/s 716 mmHg 80%
    01:00 +19°C° 0 mm 3 m/s 716 mmHg 80%
    02:00 +18°C° 0 mm 3 m/s 716 mmHg 80%
    03:00 +18°C° 0 mm 3 m/s 716 mmHg 80%
    04:00 +18°C° 0 mm 3 m/s 715 mmHg 81%
    05:00 +20°C° 0 mm 3 m/s 715 mmHg 76%
    06:00 +21°C° 0 mm 4 m/s 715 mmHg 72%
    07:00 +23°C° 0 mm 4 m/s 715 mmHg 67%
    08:00 +25°C° 0 mm 5 m/s 715 mmHg 62%
    09:00 +27°C° 0 mm 6 m/s 715 mmHg 57%
    10:00 +29°C° 0 mm 7 m/s 714 mmHg 52%
    11:00 +30°C° 0 mm 7 m/s 714 mmHg 50%
    12:00 +31°C° 0 mm 8 m/s 713 mmHg 48%
    13:00 +32°C° 0 mm 8 m/s 713 mmHg 47%
    14:00 +32°C° 0 mm 8 m/s 713 mmHg 48%
    15:00 +32°C° 0 mm 9 m/s 712 mmHg 48%
    16:00 +32°C° 0 mm 9 m/s 712 mmHg 49%
    17:00 +29°C° 0 mm 8 m/s 712 mmHg 54%
    18:00 +28°C° 0 mm 6 m/s 711 mmHg 59%
    19:00 +26°C° 0 mm 5 m/s 711 mmHg 64%
    20:00 +24°C° 0,4 mm 6 m/s 711 mmHg 68%
    21:00 +23°C° 0,4 mm 8 m/s 711 mmHg 71%
    22:00 +22°C° 0,4 mm 9 m/s 711 mmHg 75%
    23:00 +21°C° 0,3 mm 8 m/s 711 mmHg 79%

    Poimâine, 29 Iunie, Joi

    Timp Temperatura Precipitaţii Vânt Presiune Umiditate
    00:00 +20°C° 0,3 mm 7 m/s 710 mmHg 83%
    01:00 +20°C° 0,3 mm 6 m/s 709 mmHg 88%
    02:00 +19°C° 0 mm 6 m/s 709 mmHg 88%
    03:00 +19°C° 0 mm 6 m/s 709 mmHg 88%
    04:00 +19°C° 0 mm 6 m/s 708 mmHg 88%
    05:00 +20°C° 0 mm 6 m/s 708 mmHg 82%
    06:00 +20°C° 0 mm 7 m/s 709 mmHg 77%
    07:00 +21°C° 0 mm 7 m/s 709 mmHg 71%
    08:00 +22°C° 0,1 mm 7 m/s 709 mmHg 67%
    09:00 +23°C° 0,1 mm 7 m/s 710 mmHg 62%
    10:00 +24°C° 0,1 mm 7 m/s 710 mmHg 57%
    11:00 +24°C° 0,6 mm 7 m/s 711 mmHg 57%
    12:00 +26°C° 0,6 mm 7 m/s 711 mmHg 57%
    13:00 +26°C° 0,6 mm 6 m/s 711 mmHg 58%
    14:00 +26°C° 0,9 mm 6 m/s 712 mmHg 58%
    15:00 +26°C° 0,9 mm 5 m/s 712 mmHg 59%
    16:00 +25°C° 0,9 mm 5 m/s 712 mmHg 59%
    17:00 +23°C° 0,4 mm 5 m/s 712 mmHg 63%
    18:00 +22°C° 0,4 mm 4 m/s 713 mmHg 67%
    19:00 +20°C° 0,4 mm 4 m/s 713 mmHg 71%
    20:00 +19°C° 0 mm 4 m/s 713 mmHg 74%
    21:00 +18°C° 0 mm 3 m/s 714 mmHg 76%
    22:00 +16°C° 0 mm 3 m/s 714 mmHg 79%
    23:00 +16°C° 0 mm 3 m/s 715 mmHg 79%

    30 Iunie, Vineri

    Timp Temperatura Precipitaţii Vânt Presiune Umiditate
    00:00 +15°C° 0 mm 2 m/s 715 mmHg 80%
    01:00 +14°C° 0 mm 2 m/s 715 mmHg 81%
    02:00 +14°C° 0 mm 2 m/s 716 mmHg 80%
    03:00 +14°C° 0 mm 2 m/s 716 mmHg 80%
    04:00 +14°C° 0 mm 2 m/s 716 mmHg 80%
    05:00 +15°C° 0 mm 2 m/s 717 mmHg 75%
    06:00 +16°C° 0 mm 2 m/s 717 mmHg 71%
    07:00 +18°C° 0 mm 2 m/s 718 mmHg 67%
    08:00 +19°C° 0 mm 2 m/s 718 mmHg 63%
    09:00 +21°C° 0 mm 2 m/s 718 mmHg 59%
    10:00 +22°C° 0 mm 3 m/s 718 mmHg 55%
    11:00 +24°C° 0,2 mm 3 m/s 718 mmHg 54%
    12:00 +25°C° 0,2 mm 4 m/s 718 mmHg 53%
    13:00 +25°C° 0,2 mm 4 m/s 718 mmHg 52%
    14:00 +26°C° 0,2 mm 4 m/s 718 mmHg 51%
    15:00 +26°C° 0,2 mm 5 m/s 718 mmHg 49%
    16:00 +27°C° 0,2 mm 5 m/s 718 mmHg 47%
    17:00 +25°C° 0,1 mm 5 m/s 718 mmHg 51%
    18:00 +23°C° 0,1 mm 5 m/s 717 mmHg 54%
    19:00 +22°C° 0,1 mm 5 m/s 717 mmHg 57%
    20:00 +20°C° 0 mm 5 m/s 718 mmHg 61%
    21:00 +19°C° 0 mm 4 m/s 718 mmHg 64%
    22:00 +18°C° 0 mm 4 m/s 718 mmHg 67%
    23:00 +18°C° 0 mm 4 m/s 718 mmHg 69%

    1 Iulie, Sâmbătă

    Timp Temperatura Precipitaţii Vânt Presiune Umiditate
    00:00 +17°C° 0 mm 3 m/s 718 mmHg 71%
    01:00 +17°C° 0 mm 3 m/s 718 mmHg 73%
    02:00 +16°C° 0 mm 2 m/s 718 mmHg 75%
    03:00 +16°C° 0 mm 2 m/s 718 mmHg 76%
    04:00 +15°C° 0 mm 2 m/s 718 mmHg 77%
    05:00 +16°C° 0,2 mm 2 m/s 719 mmHg 74%
    06:00 +17°C° 0,2 mm 2 m/s 719 mmHg 72%
    07:00 +19°C° 0,2 mm 2 m/s 719 mmHg 69%
    08:00 +20°C° 0,5 mm 2 m/s 719 mmHg 64%
    09:00 +21°C° 0,5 mm 2 m/s 719 mmHg 59%
    10:00 +23°C° 0,5 mm 2 m/s 720 mmHg 55%
    11:00 +24°C° 0,5 mm 2 m/s 719 mmHg 53%
    12:00 +24°C° 0,5 mm 2 m/s 719 mmHg 51%
    13:00 +25°C° 0,5 mm 2 m/s 719 mmHg 49%
    14:00 +25°C° 0,4 mm 2 m/s 719 mmHg 49%
    15:00 +25°C° 0,4 mm 2 m/s 719 mmHg 49%
    16:00 +25°C° 0,4 mm 2 m/s 719 mmHg 49%
    17:00 +24°C° 0,4 mm 2 m/s 719 mmHg 55%
    18:00 +23°C° 0,4 mm 2 m/s 719 mmHg 61%
    19:00 +21°C° 0,4 mm 2 m/s 719 mmHg 67%
    20:00 +19°C° 0,1 mm 2 m/s 720 mmHg 70%
    21:00 +18°C° 0,1 mm 3 m/s 720 mmHg 72%
    22:00 +16°C° 0,1 mm 3 m/s 720 mmHg 75%
    23:00 +16°C° 0,1 mm 3 m/s 721 mmHg 78%

    2 Iulie, Duminică

    Timp Temperatura Precipitaţii Vânt Presiune Umiditate
    00:00 +14°C° 0,1 mm 3 m/s 721 mmHg 80%
    01:00 +13°C° 0,1 mm 3 m/s 721 mmHg 82%
    02:00 +13°C° 0 mm 4 m/s 721 mmHg 83%
    03:00 +13°C° 0 mm 4 m/s 721 mmHg 83%
    04:00 +12°C° 0 mm 4 m/s 721 mmHg 84%
    05:00 +14°C° 0 mm 4 m/s 722 mmHg 79%
    06:00 +15°C° 0 mm 4 m/s 722 mmHg 75%
    07:00 +18°C° 0 mm 4 m/s 722 mmHg 71%
    08:00 +18°C° 0,1 mm 4 m/s 723 mmHg 67%
    09:00 +19°C° 0,1 mm 4 m/s 723 mmHg 64%
    10:00 +20°C° 0,1 mm 4 m/s 723 mmHg 61%
    11:00 +21°C° 0,2 mm 5 m/s 723 mmHg 59%
    12:00 +21°C° 0,2 mm 5 m/s 723 mmHg 57%
    13:00 +22°C° 0,2 mm 5 m/s 723 mmHg 56%
    14:00 +22°C° 0,1 mm 5 m/s 723 mmHg 56%
    15:00 +21°C° 0,1 mm 5 m/s 723 mmHg 56%
    16:00 +21°C° 0,1 mm 5 m/s 723 mmHg 56%
    17:00 +20°C° 0 mm 5 m/s 723 mmHg 60%
    18:00 +19°C° 0 mm 4 m/s 723 mmHg 64%
    19:00 +19°C° 0 mm 4 m/s 723 mmHg 67%
    20:00 +17°C° 0 mm 4 m/s 723 mmHg 72%
    21:00 +16°C° 0 mm 3 m/s 723 mmHg 76%
    22:00 +14°C° 0 mm 3 m/s 723 mmHg 81%
    23:00 +13°C° 0 mm 3 m/s 723 mmHg 82%
    Arată mai mult